EWG772 EDDK-LKPR

Flight info

Callsign EWG772
Flight time 1h 0m
Altitude 35000
Route KUMIK2Q/13L KUMIK L603 TESGA DCT ESATI DCT BOREP DCT TONSU Z35 ODOMO DCT LOMKI
Aircraft A320/M-SDE3FGHIRWY/LB1

Departure

Time 2026-04-22 19:02
Airport Cologne Bonn Airport (EDDK)

Arrival

Time 2026-04-22 20:02
Airport Václav Havel Airport Prague (LKPR)
Time Latitude Longitude Altitude Speed Heading
2026-04-22 18:17 50.87806 7.12402 230 ft 0 kts 288°
2026-04-22 18:41 50.87804 7.12412 230 ft 2 kts 288°
2026-04-22 18:41 50.87798 7.12437 232 ft 2 kts 288°
2026-04-22 18:41 50.87793 7.12463 232 ft 2 kts 288°
2026-04-22 18:42 50.87788 7.12489 232 ft 2 kts 288°
2026-04-22 18:42 50.87783 7.12515 230 ft 2 kts 288°
2026-04-22 18:42 50.87776 7.12539 230 ft 2 kts 328°
2026-04-22 18:42 50.87762 7.12546 231 ft 0 kts 28°
2026-04-22 18:45 50.87766 7.12550 231 ft 4 kts 28°
2026-04-22 18:45 50.87807 7.12576 230 ft 9 kts 18°
2026-04-22 18:45 50.87885 7.12608 230 ft 13 kts 15°
2026-04-22 18:45 50.87965 7.12548 230 ft 14 kts 317°
2026-04-22 18:46 50.88039 7.12439 230 ft 15 kts 315°
2026-04-22 18:46 50.88103 7.12326 230 ft 10 kts 323°
2026-04-22 18:46 50.88152 7.12367 230 ft 10 kts 84°
2026-04-22 18:46 50.88118 7.12448 230 ft 8 kts 130°
2026-04-22 18:47 50.88081 7.12506 230 ft 7 kts 138°
2026-04-22 18:47 50.88062 7.12533 230 ft 1 kts 138°
2026-04-22 18:47 50.88059 7.12537 230 ft 1 kts 138°
2026-04-22 18:47 50.88035 7.12571 230 ft 6 kts 138°
2026-04-22 18:48 50.88028 7.12582 230 ft 0 kts 138°
2026-04-22 18:49 50.88026 7.12583 230 ft 2 kts 138°
2026-04-22 18:49 50.88012 7.12604 230 ft 3 kts 138°
2026-04-22 18:50 50.88003 7.12618 230 ft 1 kts 136°
2026-04-22 18:50 50.88001 7.12621 230 ft 0 kts 135°
2026-04-22 18:50 50.88000 7.12623 231 ft 2 kts 134°
2026-04-22 18:50 50.87987 7.12673 233 ft 0 kts 97°
2026-04-22 18:51 50.87989 7.12712 233 ft 5 kts 79°
2026-04-22 18:51 50.87993 7.12735 236 ft 0 kts 76°
2026-04-22 18:52 50.87995 7.12751 235 ft 0 kts 74°
2026-04-22 18:53 50.87996 7.12753 234 ft 0 kts 74°
2026-04-22 19:00 50.88005 7.12814 241 ft 11 kts 80°
2026-04-22 19:01 50.88004 7.12927 238 ft 10 kts 100°
2026-04-22 19:01 50.87979 7.13004 239 ft 6 kts 137°
2026-04-22 19:01 50.87973 7.13012 240 ft 0 kts 138°
2026-04-22 19:01 50.87906 7.13108 242 ft 44 kts 137°
2026-04-22 19:02 50.87510 7.13685 246 ft 110 kts 137°
2026-04-22 19:02 50.86819 7.14688 258 ft 158 kts 137°
2026-04-22 19:02 50.85970 7.15889 817 ft 161 kts 135°
2026-04-22 19:02 50.85132 7.17065 1550 ft 161 kts 134°
2026-04-22 19:03 50.84285 7.18261 2084 ft 170 kts 133°
2026-04-22 19:03 50.83346 7.19604 2403 ft 193 kts 134°
2026-04-22 19:03 50.82323 7.21113 2868 ft 205 kts 128°
2026-04-22 19:03 50.81601 7.23059 3623 ft 205 kts 107°
2026-04-22 19:04 50.81338 7.25294 4249 ft 215 kts 98°
2026-04-22 19:04 50.81125 7.27770 4636 ft 239 kts 97°
2026-04-22 19:04 50.80892 7.30488 5208 ft 256 kts 97°
2026-04-22 19:04 50.80650 7.33308 6038 ft 261 kts 97°
2026-04-22 19:05 50.80441 7.36193 6896 ft 266 kts 89°
2026-04-22 19:05 50.80553 7.39093 7702 ft 269 kts 84°
2026-04-22 19:05 50.80694 7.42055 8574 ft 271 kts 84°
2026-04-22 19:05 50.80836 7.45036 9463 ft 273 kts 84°
2026-04-22 19:06 50.80982 7.48049 10322 ft 275 kts 84°
2026-04-22 19:06 50.81132 7.51154 10790 ft 293 kts 84°
2026-04-22 19:06 50.81292 7.54452 11017 ft 316 kts 84°
2026-04-22 19:07 50.81643 7.61826 11733 ft 347 kts 84°
2026-04-22 19:07 50.81819 7.65651 12416 ft 351 kts 84°
2026-04-22 19:07 50.81992 7.69532 13137 ft 355 kts 84°
2026-04-22 19:07 50.82166 7.73442 13850 ft 358 kts 84°
2026-04-22 19:08 50.82343 7.77387 14506 ft 361 kts 84°
2026-04-22 19:08 50.82523 7.81377 15118 ft 364 kts 84°
2026-04-22 19:08 50.82701 7.85337 15721 ft 367 kts 84°
2026-04-22 19:08 50.82880 7.89383 16320 ft 370 kts 83°
2026-04-22 19:09 50.83058 7.93460 16892 ft 373 kts 83°
2026-04-22 19:09 50.83240 7.97582 17479 ft 376 kts 83°
2026-04-22 19:09 50.83356 8.00329 17872 ft 378 kts 85°
2026-04-22 19:09 50.83083 8.05927 18618 ft 386 kts 99°
2026-04-22 19:10 50.82264 8.10006 19089 ft 393 kts 110°
2026-04-22 19:10 50.80936 8.13821 19587 ft 399 kts 121°
2026-04-22 19:10 50.79385 8.17470 20087 ft 401 kts 121°
2026-04-22 19:10 50.77830 8.21137 20589 ft 403 kts 121°
2026-04-22 19:11 50.76270 8.24824 21085 ft 405 kts 121°
2026-04-22 19:11 50.74722 8.28483 21560 ft 407 kts 121°
2026-04-22 19:11 50.73148 8.32209 22044 ft 409 kts 121°
2026-04-22 19:11 50.71554 8.35948 22509 ft 411 kts 123°
2026-04-22 19:12 50.69692 8.39407 22959 ft 417 kts 133°
2026-04-22 19:12 50.67453 8.42357 23414 ft 422 kts 142°
2026-04-22 19:12 50.64875 8.44740 23876 ft 426 kts 149°
2026-04-22 19:12 50.62273 8.46918 24261 ft 428 kts 149°
2026-04-22 19:13 50.59637 8.49134 24622 ft 429 kts 149°
2026-04-22 19:13 50.57026 8.51334 24976 ft 431 kts 149°
2026-04-22 19:13 50.54371 8.53573 25338 ft 434 kts 148°
2026-04-22 19:13 50.51706 8.55819 25672 ft 436 kts 148°
2026-04-22 19:14 50.49025 8.58076 26011 ft 438 kts 148°
2026-04-22 19:14 50.46335 8.60366 26341 ft 439 kts 146°
2026-04-22 19:14 50.43832 8.63087 26658 ft 436 kts 136°
2026-04-22 19:14 50.41800 8.66590 26960 ft 433 kts 121°
2026-04-22 19:15 50.40818 8.69278 27155 ft 430 kts 111°
2026-04-22 19:15 50.39773 8.75315 27536 ft 429 kts 98°
2026-04-22 19:15 50.39256 8.79936 27836 ft 430 kts 98°
2026-04-22 19:15 50.38747 8.84572 28134 ft 432 kts 98°
2026-04-22 19:16 50.38240 8.89171 28429 ft 434 kts 98°
2026-04-22 19:16 50.37719 8.93840 28744 ft 435 kts 98°
2026-04-22 19:16 50.37192 8.98513 29157 ft 434 kts 98°
2026-04-22 19:16 50.36664 9.03159 29588 ft 432 kts 98°
2026-04-22 19:17 50.36139 9.07742 30008 ft 431 kts 98°
2026-04-22 19:17 50.35606 9.12360 30421 ft 430 kts 98°
2026-04-22 19:17 50.35071 9.16968 30752 ft 430 kts 98°
2026-04-22 19:17 50.34536 9.21570 31057 ft 430 kts 98°
2026-04-22 19:18 50.33999 9.26206 31371 ft 430 kts 98°
2026-04-22 19:18 50.33468 9.30778 31736 ft 428 kts 98°
2026-04-22 19:18 50.32932 9.35367 32058 ft 428 kts 98°
2026-04-22 19:18 50.32394 9.39946 32363 ft 428 kts 98°
2026-04-22 19:19 50.31852 9.44528 32666 ft 428 kts 98°
2026-04-22 19:19 50.31307 9.49117 32967 ft 429 kts 98°
2026-04-22 19:19 50.30760 9.53702 33268 ft 429 kts 98°
2026-04-22 19:19 50.30212 9.58300 33565 ft 429 kts 98°
2026-04-22 19:20 50.29665 9.62894 33869 ft 429 kts 98°
2026-04-22 19:20 50.29118 9.67481 34183 ft 430 kts 98°
2026-04-22 19:20 50.28565 9.72078 34459 ft 429 kts 98°
2026-04-22 19:20 50.28198 9.75117 34666 ft 428 kts 98°
2026-04-22 19:21 50.27646 9.79690 34963 ft 428 kts 98°
2026-04-22 19:21 50.27090 9.84259 35199 ft 428 kts 98°
2026-04-22 19:21 50.26529 9.88845 35318 ft 430 kts 98°
2026-04-22 19:22 50.25394 9.98081 35348 ft 433 kts 98°
2026-04-22 19:22 50.24252 10.07341 35350 ft 434 kts 98°
2026-04-22 19:23 50.23099 10.16600 35360 ft 433 kts 98°
2026-04-22 19:23 50.21946 10.25810 35349 ft 431 kts 98°
2026-04-22 19:24 50.20797 10.34943 35349 ft 430 kts 98°
2026-04-22 19:24 50.19635 10.44116 35350 ft 430 kts 98°
2026-04-22 19:25 50.18467 10.53280 35347 ft 430 kts 99°
2026-04-22 19:25 50.17290 10.62452 35366 ft 430 kts 99°
2026-04-22 19:26 50.16111 10.71526 35365 ft 429 kts 99°
2026-04-22 19:26 50.14924 10.80643 35362 ft 428 kts 99°
2026-04-22 19:27 50.13731 10.89744 35352 ft 428 kts 99°
2026-04-22 19:27 50.12534 10.98842 35350 ft 428 kts 99°
2026-04-22 19:28 50.11324 11.07939 35351 ft 429 kts 99°
2026-04-22 19:28 50.10118 11.16979 35354 ft 428 kts 99°
2026-04-22 19:29 50.08890 11.26075 35353 ft 428 kts 99°
2026-04-22 19:29 50.07664 11.35137 35351 ft 428 kts 99°
2026-04-22 19:30 50.06636 11.42687 35343 ft 427 kts 99°
2026-04-22 19:30 50.05202 11.53173 34779 ft 423 kts 99°
2026-04-22 19:30 50.04585 11.57665 34037 ft 423 kts 99°
2026-04-22 19:31 50.03972 11.62130 33402 ft 419 kts 100°
2026-04-22 19:31 50.03364 11.66529 32847 ft 413 kts 100°
2026-04-22 19:31 50.02756 11.70880 32328 ft 408 kts 101°
2026-04-22 19:31 50.02155 11.75151 31480 ft 401 kts 101°
2026-04-22 19:32 50.01564 11.79354 30993 ft 395 kts 101°
2026-04-22 19:32 50.00991 11.83435 30494 ft 389 kts 101°
2026-04-22 19:32 50.00413 11.87535 29923 ft 384 kts 101°
2026-04-22 19:32 49.99843 11.91575 29295 ft 381 kts 101°
2026-04-22 19:33 49.99281 11.95578 28714 ft 377 kts 101°
2026-04-22 19:33 49.98725 11.99551 28085 ft 374 kts 101°
2026-04-22 19:33 49.98180 12.03433 27493 ft 372 kts 101°
2026-04-22 19:33 49.97627 12.07348 26878 ft 370 kts 101°
2026-04-22 19:34 49.97072 12.11240 26273 ft 368 kts 100°
2026-04-22 19:34 49.96515 12.15111 25684 ft 366 kts 100°
2026-04-22 19:34 49.95955 12.18973 25378 ft 366 kts 100°
2026-04-22 19:34 49.95394 12.22840 25315 ft 368 kts 100°
2026-04-22 19:35 49.94829 12.26731 25327 ft 369 kts 100°
2026-04-22 19:35 49.94267 12.30615 25328 ft 369 kts 100°
2026-04-22 19:35 49.93795 12.34530 25325 ft 368 kts 95°
2026-04-22 19:35 49.93605 12.38458 24940 ft 362 kts 90°
2026-04-22 19:36 49.93505 12.42349 24388 ft 360 kts 90°
2026-04-22 19:36 49.93404 12.46226 23825 ft 359 kts 90°
2026-04-22 19:36 49.93301 12.50087 23196 ft 357 kts 90°
2026-04-22 19:36 49.93189 12.53926 22613 ft 355 kts 90°
2026-04-22 19:37 49.93072 12.57749 22059 ft 353 kts 90°
2026-04-22 19:37 49.92957 12.61542 21531 ft 351 kts 90°
2026-04-22 19:37 49.92843 12.65316 21009 ft 349 kts 90°
2026-04-22 19:37 49.92729 12.69069 20510 ft 347 kts 90°
2026-04-22 19:38 49.92616 12.72794 20018 ft 345 kts 90°
2026-04-22 19:38 49.92502 12.76503 19541 ft 343 kts 90°
2026-04-22 19:38 49.92388 12.80165 19311 ft 334 kts 90°
2026-04-22 19:38 49.92275 12.83710 19189 ft 323 kts 90°
2026-04-22 19:39 49.92166 12.87078 19083 ft 312 kts 90°
2026-04-22 19:39 49.92057 12.90394 18862 ft 305 kts 89°
2026-04-22 19:39 49.91954 12.93662 18526 ft 302 kts 89°
2026-04-22 19:39 49.91850 12.96908 18125 ft 300 kts 89°
2026-04-22 19:40 49.91744 13.00148 17732 ft 299 kts 89°
2026-04-22 19:40 49.91639 13.03368 17365 ft 298 kts 89°
2026-04-22 19:40 49.91535 13.06578 17309 ft 299 kts 89°
2026-04-22 19:40 49.91427 13.09812 17316 ft 300 kts 89°
2026-04-22 19:41 49.91316 13.13041 17307 ft 300 kts 89°
2026-04-22 19:41 49.91203 13.16279 17309 ft 300 kts 89°
2026-04-22 19:41 49.91091 13.19496 17093 ft 297 kts 89°
2026-04-22 19:41 49.90979 13.22697 16713 ft 297 kts 89°
2026-04-22 19:42 49.90867 13.25853 16355 ft 296 kts 89°
2026-04-22 19:42 49.90753 13.29032 16031 ft 295 kts 89°
2026-04-22 19:42 49.90640 13.32217 15777 ft 295 kts 89°
2026-04-22 19:42 49.90527 13.35405 15524 ft 295 kts 89°
2026-04-22 19:43 49.90407 13.41738 14999 ft 291 kts 82°
2026-04-22 19:43 49.90642 13.44794 14679 ft 287 kts 76°
2026-04-22 19:43 49.91121 13.47788 14350 ft 284 kts 69°
2026-04-22 19:44 49.91826 13.50641 14018 ft 282 kts 62°
2026-04-22 19:44 49.92735 13.53325 13646 ft 279 kts 56°
2026-04-22 19:44 49.93832 13.55807 13334 ft 276 kts 50°
2026-04-22 19:44 49.95012 13.58166 13302 ft 277 kts 50°
2026-04-22 19:45 49.96192 13.60547 13302 ft 278 kts 51°
2026-04-22 19:45 49.97354 13.62909 13304 ft 278 kts 51°
2026-04-22 19:45 49.98532 13.65300 13304 ft 278 kts 51°
2026-04-22 19:45 49.99709 13.67691 13303 ft 278 kts 51°
2026-04-22 19:46 50.00888 13.70085 13301 ft 278 kts 51°
2026-04-22 19:46 50.02061 13.72472 13065 ft 276 kts 51°
2026-04-22 19:46 50.03212 13.74866 12715 ft 276 kts 55°
2026-04-22 19:46 50.03925 13.77602 12369 ft 280 kts 77°
2026-04-22 19:47 50.03954 13.80651 11989 ft 284 kts 89°
2026-04-22 19:47 50.03832 13.83717 11639 ft 284 kts 89°
2026-04-22 19:47 50.03744 13.85748 11412 ft 283 kts 89°
2026-04-22 19:47 50.03564 13.89831 10936 ft 282 kts 89°
2026-04-22 19:48 50.03430 13.92875 10599 ft 281 kts 89°
2026-04-22 19:48 50.03295 13.95902 10240 ft 280 kts 89°
2026-04-22 19:48 50.03162 13.98889 9866 ft 279 kts 89°
2026-04-22 19:48 50.03030 14.01900 9462 ft 278 kts 89°
2026-04-22 19:49 50.02898 14.04891 9083 ft 277 kts 90°
2026-04-22 19:49 50.02763 14.07881 8676 ft 276 kts 90°
2026-04-22 19:49 50.02629 14.10850 8328 ft 274 kts 90°
2026-04-22 19:49 50.02494 14.13803 8267 ft 274 kts 90°
2026-04-22 19:50 50.02361 14.16750 8016 ft 273 kts 90°
2026-04-22 19:50 50.02231 14.19647 7631 ft 272 kts 90°
2026-04-22 19:50 50.02098 14.22571 7306 ft 269 kts 91°
2026-04-22 19:50 50.01962 14.25483 7270 ft 271 kts 91°
2026-04-22 19:51 50.01826 14.28418 7279 ft 272 kts 90°
2026-04-22 19:51 50.01690 14.31351 7276 ft 272 kts 90°
2026-04-22 19:51 50.01554 14.34283 7275 ft 272 kts 90°
2026-04-22 19:51 50.01418 14.37220 7275 ft 272 kts 90°
2026-04-22 19:52 50.01281 14.40158 7275 ft 272 kts 90°
2026-04-22 19:52 50.01140 14.43094 7275 ft 272 kts 90°
2026-04-22 19:52 50.00997 14.46039 7275 ft 272 kts 90°
2026-04-22 19:52 50.00854 14.48971 7275 ft 272 kts 90°
2026-04-22 19:53 50.00711 14.51897 7016 ft 270 kts 90°
2026-04-22 19:53 50.00570 14.54757 6628 ft 269 kts 91°
2026-04-22 19:53 50.00474 14.56704 6448 ft 264 kts 90°
2026-04-22 19:53 50.00291 14.60356 6270 ft 248 kts 90°
2026-04-22 19:54 50.00159 14.62978 6116 ft 239 kts 90°
2026-04-22 19:54 50.00027 14.65488 5985 ft 229 kts 92°
2026-04-22 19:54 49.99486 14.67786 5844 ft 230 kts 124°
2026-04-22 19:54 49.98227 14.69270 5689 ft 231 kts 159°
2026-04-22 19:55 49.96648 14.69469 5443 ft 230 kts 195°
2026-04-22 19:55 49.95261 14.68337 5167 ft 225 kts 230°
2026-04-22 19:55 49.94533 14.66297 4930 ft 213 kts 265°
2026-04-22 19:55 49.94554 14.64043 4656 ft 208 kts 283°
2026-04-22 19:56 49.94782 14.61827 4398 ft 208 kts 285°
2026-04-22 19:56 49.95034 14.59616 4182 ft 207 kts 285°
2026-04-22 19:56 49.95288 14.57451 4049 ft 206 kts 285°
2026-04-22 19:56 49.95784 14.55428 4005 ft 198 kts 309°
2026-04-22 19:57 49.96595 14.53757 4009 ft 188 kts 311°
2026-04-22 19:57 49.97366 14.52184 4033 ft 180 kts 311°
2026-04-22 19:57 49.98102 14.50676 4012 ft 168 kts 311°
2026-04-22 19:57 49.98788 14.49271 4005 ft 160 kts 312°
2026-04-22 19:58 49.99451 14.47913 4007 ft 156 kts 312°
2026-04-22 19:58 50.00107 14.46570 4009 ft 155 kts 312°
2026-04-22 19:58 50.00759 14.45233 3925 ft 155 kts 312°
2026-04-22 19:58 50.01410 14.43897 3763 ft 154 kts 312°
2026-04-22 19:59 50.02057 14.42568 3577 ft 153 kts 312°
2026-04-22 20:00 50.05811 14.34841 2358 ft 138 kts 310°
2026-04-22 20:00 50.06383 14.33665 2178 ft 135 kts 310°
2026-04-22 20:01 50.06940 14.32521 1947 ft 132 kts 310°
2026-04-22 20:01 50.07511 14.31355 1756 ft 136 kts 308°
2026-04-22 20:01 50.08079 14.30175 1606 ft 136 kts 308°
2026-04-22 20:01 50.08647 14.29001 1406 ft 134 kts 307°
2026-04-22 20:02 50.09193 14.27864 1245 ft 129 kts 307°
2026-04-22 20:02 50.09679 14.26855 1208 ft 95 kts 307°
2026-04-22 20:02 50.09982 14.26228 1196 ft 58 kts 307°
2026-04-22 20:02 50.10200 14.25781 1187 ft 39 kts 309°
2026-04-22 20:03 50.10375 14.25657 1184 ft 27 kts 353°
2026-04-22 20:03 50.10469 14.25674 1182 ft 0 kts 16°
2026-04-22 20:04 50.10478 14.25679 1181 ft 3 kts 18°
2026-04-22 20:05 50.10482 14.25681 1178 ft 0 kts 19°
2026-04-22 20:05 50.10484 14.25687 1179 ft 3 kts 46°
2026-04-22 20:05 50.10495 14.25826 1175 ft 17 kts 82°
2026-04-22 20:06 50.10509 14.25954 1175 ft 7 kts 79°
2026-04-22 20:06 50.10528 14.26083 1174 ft 17 kts 78°
2026-04-22 20:06 50.10535 14.26221 1174 ft 18 kts 103°
2026-04-22 20:06 50.10482 14.26366 1173 ft 13 kts 124°
2026-04-22 20:07 50.10438 14.26465 1173 ft 6 kts 124°
2026-04-22 20:07 50.10432 14.26489 1174 ft 2 kts 86°
2026-04-22 20:07 50.10446 14.26515 1170 ft 5 kts 38°
2026-04-22 20:07 50.10461 14.26532 1170 ft 0 kts 34°